CW5456 Hansville WA US current weather conditions

sailwx.info

Wind from 136 at 1 knots gusting 5

Air temperature 3.9° C
Dewpoint 2.1° C

Last reported at 2014-Nov-28 23:39 UTC.
Time now 2014-Nov-29 00:12 UTC

Location: N 47°55' W 122°35'.
View on Google Maps.

See reports from other nearby stations

  
Tides and Currents Weather Stations Pressure Air Temp Water Temp Dewpoint Dewpoint Depression Visibility Wind Speed Wind Dir Waves Ship Positions
date/time (UTC)wind fromknots sea level pressurealtimeterstation pressurevisibilityair tempwater tempwave heightnotes
2014-Nov-28 23:39 136 1 gusting 5 3.9
2014-Nov-28 23:29 115 0 gusting 2 4.4
2014-Nov-28 23:19 110 1 gusting 2 4.4
2014-Nov-28 22:39 057 6 gusting 9 3.9
2014-Nov-28 22:29 052 5 gusting 11 3.9
2014-Nov-28 22:14 075 10 gusting 16 3.9
2014-Nov-28 22:04 046 14 gusting 16 3.9
2014-Nov-28 21:59 049 12 gusting 15 3.9
2014-Nov-28 21:34 032 12 gusting 19 4.4
2014-Nov-28 21:14 020 17 gusting 19 4.4
2014-Nov-28 21:04 025 14 gusting 22 5.0
2014-Nov-28 20:49 030 12 gusting 19 5.6
2014-Nov-28 20:34 034 18 gusting 21 6.1
2014-Nov-28 20:09 360 17 gusting 20 6.7
2014-Nov-28 19:59 015 19 gusting 22 6.7
2014-Nov-28 19:44 013 19 gusting 22 6.7
2014-Nov-28 19:34 012 22 gusting 22 6.7
2014-Nov-28 19:19 015 18 gusting 22 6.7
2014-Nov-28 19:04 020 17 gusting 20 6.7
2014-Nov-28 18:59 037 13 gusting 22 6.7
2014-Nov-28 18:54 017 17 gusting 22 6.7
2014-Nov-28 18:24 029 21 gusting 22 7.2
2014-Nov-28 18:19 023 18 gusting 20 7.2
2014-Nov-28 18:04 016 19 gusting 20 7.2
2014-Nov-28 17:54 015 19 gusting 21 7.2
2014-Nov-28 17:44 018 18 gusting 25 7.8
2014-Nov-28 17:24 360 18 gusting 24 7.8
2014-Nov-28 17:19 323 17 gusting 24 7.8
2014-Nov-28 17:04 337 28 gusting 29 7.8
2014-Nov-28 16:59 344 19 gusting 22 8.3
2014-Nov-28 16:49 355 19 gusting 25 8.3
2014-Nov-28 16:44 339 19 gusting 26 8.3
2014-Nov-28 16:34 334 17 gusting 26 8.3
2014-Nov-28 15:49 344 12 gusting 18 8.3
2014-Nov-28 15:34 312 6 gusting 20 8.3
2014-Nov-28 15:19 296 7 gusting 21 8.3
2014-Nov-28 15:04 348 11 gusting 19 8.3
2014-Nov-28 14:39 336 3 gusting 17 8.9
2014-Nov-28 14:24 322 8 gusting 14 8.9
2014-Nov-28 14:09 338 9 gusting 17 8.9
2014-Nov-28 14:04 005 12 gusting 17 8.9
2014-Nov-28 13:59 333 12 gusting 18 9.4
2014-Nov-28 13:49 344 14 gusting 16 9.4
2014-Nov-28 13:44 012 15 gusting 16 10.0
2014-Nov-28 13:30 336 10 gusting 12 10.0
2014-Nov-28 13:20 322 10 gusting 13 10.6
2014-Nov-28 12:49 292 1 gusting 11 12.2
2014-Nov-28 12:34 206 6 gusting 19 12.2
2014-Nov-28 12:20 188 3 gusting 16 12.2
2014-Nov-28 11:59 171 8 gusting 16 12.2
2014-Nov-28 11:50 184 7 gusting 16 12.2
2014-Nov-28 11:35 203 6 gusting 18 12.2
2014-Nov-28 11:20 188 9 gusting 17 12.2
2014-Nov-28 11:04 161 2 gusting 11 12.2
2014-Nov-28 10:50 159 6 gusting 15 12.2
2014-Nov-28 10:35 186 6 gusting 13 12.8
2014-Nov-28 10:20 277 6 gusting 14 12.8
2014-Nov-28 10:00 109 9 gusting 15 12.8
2014-Nov-28 09:45 182 2 gusting 20 12.8
2014-Nov-28 09:30 186 10 gusting 13 12.8
2014-Nov-28 09:10 192 3 gusting 21 12.8
2014-Nov-28 09:05 146 7 gusting 21 12.8
2014-Nov-28 08:55 101 0 gusting 19 12.8
2014-Nov-28 08:44 211 0 gusting 15 12.8
2014-Nov-28 08:34 227 2 gusting 16 12.8
2014-Nov-28 08:19 186 10 gusting 25 12.8
2014-Nov-28 07:54 175 13 gusting 18 12.8
2014-Nov-28 07:49 121 5 gusting 17 12.8
2014-Nov-28 07:04 150 6 gusting 18 12.8
2014-Nov-28 06:44 199 10 gusting 16 12.8
2014-Nov-28 05:49 079 2 gusting 17 12.8
2014-Nov-28 05:24 180 9 gusting 14 13.3
2014-Nov-28 05:09 138 2 gusting 17 13.3
2014-Nov-28 04:39 152 6 gusting 20 13.3
2014-Nov-28 04:34 132 8 gusting 19 13.9
2014-Nov-28 04:04 196 6 gusting 19 13.3
2014-Nov-28 03:59 188 6 gusting 18 13.3
2014-Nov-28 03:39 167 12 gusting 16 13.3
2014-Nov-28 03:34 138 6 gusting 16 13.3
2014-Nov-28 03:19 170 12 gusting 20 13.3
2014-Nov-28 03:04 183 12 gusting 15 12.8
2014-Nov-28 02:54 166 6 gusting 19 13.3
2014-Nov-28 02:49 213 6 gusting 19 13.3
2014-Nov-28 02:44 198 10 gusting 19 13.3
2014-Nov-28 02:29 175 9 gusting 17 13.3
2014-Nov-28 02:09 169 10 gusting 19 13.3
2014-Nov-28 02:04 106 2 gusting 18 13.3
2014-Nov-28 01:59 182 9 gusting 22 13.3
2014-Nov-28 01:54 184 9 gusting 22 13.3
2014-Nov-28 01:49 132 1 gusting 17 13.3
2014-Nov-28 01:29 199 13 gusting 20 13.3
2014-Nov-28 01:19 153 11 gusting 20 13.3
2014-Nov-28 01:04 207 9 gusting 20 13.3
2014-Nov-28 00:59 161 5 gusting 19 13.3
2014-Nov-28 00:49 209 6 gusting 19 13.3
2014-Nov-28 00:29 151 15 gusting 20 13.3
2014-Nov-28 00:19 146 5 gusting 19 13.3
2014-Nov-28 00:04 167 8 gusting 14 13.9
2014-Nov-27 23:54 139 7 gusting 16 13.9
2014-Nov-27 23:19 117 8 gusting 20 13.9
2014-Nov-27 23:04 167 9 gusting 19 13.9
2014-Nov-27 22:54 169 6 gusting 21 13.9
2014-Nov-27 22:49 172 18 gusting 21 13.9
2014-Nov-27 22:44 185 11 gusting 21 13.9
2014-Nov-27 22:24 136 13 gusting 20 14.4
2014-Nov-27 22:14 179 15 gusting 16 14.4
2014-Nov-27 22:04 122 10 gusting 17 14.4
2014-Nov-27 21:54 165 15 gusting 17 14.4
2014-Nov-27 21:50 195 16 gusting 18 14.4
2014-Nov-27 21:44 146 12 gusting 18 14.4
2014-Nov-27 21:34 183 10 gusting 18 14.4
2014-Nov-27 21:14 123 7 gusting 16 13.9
2014-Nov-27 20:50 178 5 gusting 18 13.9
2014-Nov-27 20:45 233 2 gusting 16 13.9
2014-Nov-27 20:34 203 6 gusting 18 14.4
2014-Nov-27 20:20 205 5 gusting 24 14.4
2014-Nov-27 20:04 148 6 gusting 19 14.4
2014-Nov-27 19:44 138 10 gusting 25 15.0
2014-Nov-27 19:10 147 18 gusting 26 15.0
2014-Nov-27 18:54 188 17 gusting 20 14.4
2014-Nov-27 18:44 200 7 gusting 26 14.4
2014-Nov-27 18:35 178 15 gusting 21 14.4
2014-Nov-27 18:20 165 19 gusting 26 13.9
2014-Nov-27 18:05 183 15 gusting 32 13.9
2014-Nov-27 17:45 119 5 gusting 26 13.9
2014-Nov-27 17:35 200 11 gusting 27 13.3
2014-Nov-27 17:20 149 13 gusting 26 13.3
2014-Nov-27 16:45 173 24 gusting 26 13.3
2014-Nov-27 16:35 165 20 gusting 21 13.3
2014-Nov-27 15:44 224 7 gusting 26 12.8
2014-Nov-27 15:29 213 6 gusting 20 12.8
2014-Nov-27 15:14 155 12 gusting 22 12.2
2014-Nov-27 14:54 165 17 gusting 21 12.2
2014-Nov-27 14:34 134 10 gusting 22 12.2
2014-Nov-27 14:19 196 12 gusting 25 12.2
2014-Nov-27 14:04 192 6 gusting 19 12.2
2014-Nov-27 13:54 219 11 gusting 24 12.2
2014-Nov-27 13:39 173 12 gusting 26 12.2
2014-Nov-27 13:29 210 1 gusting 21 12.2
2014-Nov-27 13:09 067 6 gusting 24 12.2
2014-Nov-27 12:59 157 5 gusting 26 12.2
2014-Nov-27 12:49 172 13 gusting 21 12.2
2014-Nov-27 12:44 232 9 gusting 22 12.2
2014-Nov-27 12:34 123 6 gusting 26 12.2
2014-Nov-27 12:04 155 2 gusting 27 12.2
2014-Nov-27 11:54 211 16 gusting 25 12.2
2014-Nov-27 11:49 219 17 gusting 25 12.2
2014-Nov-27 11:44 225 13 gusting 25 12.8
2014-Nov-27 11:29 210 14 gusting 30 12.8
2014-Nov-27 10:04 182 12 gusting 26 13.3
2014-Nov-27 09:44 161 17 gusting 29 13.3
2014-Nov-27 09:29 150 12 gusting 27 13.3
2014-Nov-27 09:19 105 12 gusting 25 13.3
2014-Nov-27 08:59 117 13 gusting 21 13.3
2014-Nov-27 08:54 178 6 gusting 20 13.3
2014-Nov-27 08:44 195 1 gusting 18 13.3
2014-Nov-27 08:34 170 12 gusting 17 13.3
2014-Nov-27 08:14 229 2 gusting 12 13.9
2014-Nov-27 08:04 179 6 gusting 7 13.9
2014-Nov-27 07:54 084 2 gusting 17 13.9
2014-Nov-27 06:59 175 5 gusting 13 13.9
2014-Nov-27 06:54 191 2 gusting 12 13.9
2014-Nov-27 06:49 156 8 gusting 8 13.9
2014-Nov-27 06:44 184 2 gusting 9 13.9
2014-Nov-27 06:34 192 1 gusting 12 13.9
2014-Nov-27 06:19 088 0 gusting 11 13.9
2014-Nov-27 05:54 073 0 gusting 12 13.9
2014-Nov-27 05:29 055 2 gusting 16 13.9
2014-Nov-27 05:19 196 8 gusting 11 14.4
2014-Nov-27 04:44 161 10 gusting 18 14.4
2014-Nov-27 04:24 176 13 gusting 16 14.4
2014-Nov-27 04:14 156 3 gusting 16 14.4
2014-Nov-27 04:05 183 10 gusting 18 14.4
2014-Nov-27 03:44 147 12 gusting 19 14.4
2014-Nov-27 03:15 164 0 gusting 15 13.9
2014-Nov-27 03:05 169 5 gusting 16 13.9
2014-Nov-27 02:55 186 3 gusting 11 13.9
2014-Nov-27 02:50 155 7 gusting 10 13.9
2014-Nov-27 02:44 154 2 gusting 10 13.9
2014-Nov-27 02:35 173 8 gusting 14 13.9
2014-Nov-27 02:20 188 5 gusting 12 13.9
2014-Nov-27 02:00 201 6 gusting 14 13.9
2014-Nov-27 01:55 202 6 gusting 19 13.9
2014-Nov-27 01:50 172 6 gusting 19 13.9
2014-Nov-27 01:45 128 5 gusting 16 13.9
2014-Nov-27 01:35 195 9 gusting 20 13.9
2014-Nov-27 01:20 232 3 gusting 30 13.9
2014-Nov-27 01:05 155 5 gusting 21 14.4
2014-Nov-27 00:55 219 6 gusting 18 13.9
2014-Nov-27 00:50 165 6 gusting 21 13.9
2014-Nov-27 00:15 111 5 gusting 14 14.4
2014-Nov-27 00:00 150 7 gusting 24 14.4